{"data":{"norad_id":65111,"epoch":"2026-05-25T04:09:18.611712Z","epoch_age_seconds":53853,"freshness":"FRESH","line1":"1 65111U 25168F   26145.17313208 -.00000077  00000+0  10192-3 0  9999","line2":"2 65111  50.0001  47.8940 0011094  28.1323 332.0147 13.29321652 39633","mean_motion":13.29321652,"eccentricity":0.0011094,"inclination_deg":50.0001,"raan_deg":47.894,"arg_perigee_deg":28.1323,"mean_anomaly_deg":332.0147,"bstar":0.00010192,"rev_number":3963,"period_min":108.32592682392,"perigee_km":1140.9720217848,"apogee_km":1157.6739500015,"semimajor_km":7527.4599858931,"source":"CELESTRAK","updated_at":"2026-05-25T13:38:05.134888Z"}}